Location: Alafon
(8.4500°N, 4.2333°E)
Time: 07:37:23
(UTC+00:00)

SR - Pass Details

Date: 07 August 2021
Orbit: 581 x 874 km, 66.7° (Epoch: 19 September)

Event Time Altitude Azimuth Distance (km) Brightness Sun altitude
Rises 14:22:19 0° 340° (NNW) 2,854 ? 51.8°
Reaches altitude 10° 14:24:36 10° 341° (NNW) 1,925 ? 51.2°
Maximum altitude 14:28:53 85° 67° (ENE) 588 ? 50.2°
Drops below altitude 10° 14:33:06 10° 158° (SSE) 1,889 ? 49.2°
Sets 14:35:19 0° 159° (SSE) 2,796 ? 48.7°
